Location: Killam
(52.7910°N, 111.8608°W)
Time: 11:41:35
(UTC+00:00)

METEOR M2 - Pass Details

Date: 18 March 2026
Orbit: 817 x 824 km, 98.5° (Epoch: 14 April)

Event Time Altitude Azimuth Distance (km) Brightness Sun altitude
Rises 10:22:42 0° 27° (NNE) 3,374 ? -27.6°
Reaches altitude 10° 10:26:04 10° 48° (NE) 2,435 ? -27.2°
Maximum altitude 10:29:17 16° 85° (E) 2,042 ? -26.8°
Drops below altitude 10° 10:32:30 10° 123° (ESE) 2,424 ? -26.4°
Sets 10:35:49 0° 144° (SE) 3,350 ? -26.0°
